| time (UTC) | temp C | wind direction | speed KPH | gust KPH | rain 1hr cm | rain 24hr cm | rain mn cm | humidity % | barometer mb |
| 20260507213011 | 11 | 245 | 0.0 | 3.2 | 0.00 | 0.00 | 0.00 | 77 | 1013.4 |
| 20260507211509 | 11 | 245 | 0.0 | 1.6 | 0.00 | 0.00 | 0.00 | 76 | 1013.4 |
| 20260507210007 | 11 | 245 | 0.0 | 0.0 | 0.00 | 0.00 | 0.00 | 75 | 1013.3 |
| 20260507204506 | 12 | 245 | 0.0 | 0.0 | 0.00 | 0.00 | 0.00 | 75 | 1013.0 |
| 20260507203009 | 12 | 245 | 0.0 | 0.0 | 0.00 | 0.00 | 0.00 | 73 | 1012.9 |
| 20260507201506 | 12 | 245 | 0.0 | 3.2 | 0.00 | 0.00 | 0.00 | 71 | 1012.9 |
| 20260507200004 | 13 | 245 | 0.0 | 1.6 | 0.00 | 0.00 | 0.00 | 70 | 1012.7 |
| 20260507194504 | 13 | 245 | 0.0 | 1.6 | 0.00 | 0.00 | 0.00 | 69 | 1012.6 |
| 20260507193003 | 14 | 245 | 0.0 | 3.2 | 0.00 | 0.00 | 0.00 | 68 | 1012.4 |
| 20260507191504 | 15 | 245 | 0.0 | 3.2 | 0.00 | 0.00 | 0.00 | 65 | 1012.3 |
| 20260507190004 | 15 | 245 | 0.0 | 1.6 | 0.00 | 0.00 | 0.00 | 63 | 1012.3 |
| 20260507184504 | 16 | 245 | 0.0 | 4.8 | 0.00 | 0.00 | 0.00 | 62 | 1012.3 |
| 20260507183003 | 16 | 245 | 3.2 | 6.4 | 0.00 | 0.00 | 0.00 | 60 | 1012.3 |
| 20260507181605 | 16 | 252 | 3.2 | 6.4 | 0.00 | 0.00 | 0.00 | 60 | 1012.1 |
| 20260507180100 | 17 | 246 | 1.6 | 8.0 | 0.00 | 0.00 | 0.00 | 59 | 1012.0 |
| 20260507174541 | 17 | 251 | 3.2 | 8.0 | 0.00 | 0.00 | 0.00 | 57 | 1012.0 |
| 20260507173035 | 17 | 245 | 4.8 | 12.9 | 0.00 | 0.00 | 0.00 | 56 | 1011.8 |
| 20260507171536 | 17 | 254 | 4.8 | 14.5 | 0.00 | 0.00 | 0.00 | 55 | 1011.8 |
| 20260507170041 | 18 | 260 | 4.8 | 14.5 | 0.00 | 0.00 | 0.00 | 54 | 1011.8 |
| 20260507164533 | 18 | 261 | 8.0 | 16.1 | 0.00 | 0.00 | 0.00 | 52 | 1011.9 |
| 20260507163029 | 18 | 243 | 9.7 | 16.1 | 0.00 | 0.00 | 0.00 | 51 | 1011.9 |
| 20260507161528 | 19 | 259 | 8.0 | 14.5 | 0.00 | 0.00 | 0.00 | 50 | 1011.9 |
| 20260507160027 | 19 | 247 | 6.4 | 17.7 | 0.00 | 0.00 | 0.00 | 51 | 1011.8 |
| 20260507154526 | 20 | 282 | 9.7 | 17.7 | 0.00 | 0.00 | 0.00 | 48 | 1011.7 |
| 20260507151554 | 20 | 261 | 11.3 | 17.7 | 0.00 | 0.00 | 0.00 | 47 | 1011.8 |
| 20260507150054 | 20 | 254 | 9.7 | 19.3 | 0.00 | 0.00 | 0.00 | 46 | 1011.9 |
| 20260507144553 | 20 | 246 | 4.8 | 17.7 | 0.00 | 0.00 | 0.00 | 46 | 1012.0 |
| 20260507143053 | 20 | 247 | 9.7 | 16.1 | 0.00 | 0.00 | 0.00 | 46 | 1012.0 |
| 20260507141552 | 20 | 236 | 9.7 | 16.1 | 0.00 | 0.00 | 0.00 | 46 | 1012.2 |
| 20260507140052 | 20 | 239 | 8.0 | 19.3 | 0.00 | 0.00 | 0.00 | 47 | 1012.2 |
| 20260507134552 | 20 | 231 | 9.7 | 22.5 | 0.00 | 0.00 | 0.00 | 49 | 1012.3 |
| 20260507133048 | 20 | 245 | 8.0 | 16.1 | 0.00 | 0.00 | 0.00 | 49 | 1012.3 |
| 20260507131558 | 21 | 236 | 8.0 | 16.1 | 0.00 | 0.00 | 0.00 | 48 | 1012.4 |
| 20260507130103 | 21 | 257 | 4.8 | 16.1 | 0.00 | 0.00 | 0.00 | 51 | 1012.4 |
| 20260507124552 | 21 | 235 | 9.7 | 14.5 | 0.00 | 0.00 | 0.00 | 52 | 1012.5 |
| 20260507123045 | 21 | 242 | 8.0 | 17.7 | 0.00 | 0.00 | 0.00 | 52 | 1012.4 |
| 20260507121552 | 21 | 274 | 4.8 | 14.5 | 0.00 | 0.00 | 0.00 | 49 | 1012.3 |
| 20260507120045 | 21 | 250 | 4.8 | 14.5 | 0.00 | 0.00 | 0.00 | 47 | 1012.3 |
| 20260507114551 | 21 | 233 | 8.0 | 16.1 | 0.00 | 0.00 | 0.00 | 48 | 1012.3 |
| 20260507113040 | 21 | 296 | 1.6 | 14.5 | 0.00 | 0.00 | 0.00 | 47 | 1012.2 |
| 20260507111539 | 20 | 253 | 4.8 | 14.5 | 0.00 | 0.00 | 0.00 | 46 | 1012.4 |
| 20260507110039 | 20 | 251 | 8.0 | 19.3 | 0.00 | 0.00 | 0.00 | 45 | 1012.4 |
| 20260507104536 | 20 | 271 | 4.8 | 12.9 | 0.00 | 0.00 | 0.00 | 48 | 1012.6 |
| 20260507103033 | 20 | 238 | 4.8 | 11.3 | 0.00 | 0.00 | 0.00 | 48 | 1012.7 |
| 20260507101530 | 20 | 256 | 6.4 | 14.5 | 0.00 | 0.00 | 0.00 | 48 | 1012.9 |
| 20260507100034 | 20 | 273 | 3.2 | 8.0 | 0.00 | 0.00 | 0.00 | 51 | 1012.9 |
| 20260507094523 | 20 | 325 | 3.2 | 9.7 | 0.00 | 0.00 | 0.00 | 47 | 1013.0 |
| 20260507093019 | 19 | 268 | 3.2 | 9.7 | 0.00 | 0.00 | 0.00 | 50 | 1013.1 |
| 20260507091516 | 18 | 244 | 1.6 | 8.0 | 0.00 | 0.00 | 0.00 | 53 | 1013.0 |
| 20260507090019 | 18 | 242 | 1.6 | 8.0 | 0.00 | 0.00 | 0.00 | 58 | 1012.9 |
| 20260507084511 | 18 | 302 | 0.0 | 6.4 | 0.00 | 0.00 | 0.00 | 59 | 1012.9 |
| 20260507083002 | 17 | 298 | 0.0 | 4.8 | 0.00 | 0.00 | 0.00 | 61 | 1013.0 |
| 20260507081604 | 17 | 289 | 0.0 | 6.4 | 0.00 | 0.00 | 0.00 | 63 | 1012.8 |
| 20260507080053 | 17 | 45 | 0.0 | 9.7 | 0.00 | 0.00 | 0.00 | 66 | 1012.8 |
| 20260507074601 | 16 | 248 | 0.0 | 3.2 | 0.00 | 0.00 | 0.00 | 71 | 1012.9 |
| 20260507073044 | 15 | 246 | 0.0 | 4.8 | 0.00 | 0.00 | 0.00 | 82 | 1012.9 |
| 20260507071540 | 13 | 244 | 0.0 | 3.2 | 0.00 | 0.00 | 0.00 | 90 | 1012.9 |
| 20260507070036 | 12 | 245 | 0.0 | 0.0 | 0.00 | 0.00 | 0.00 | 93 | 1012.7 |
| 20260507064532 | 12 | 245 | 0.0 | 0.0 | 0.00 | 0.00 | 0.00 | 94 | 1012.7 |
| 20260507063029 | 11 | 245 | 0.0 | 3.2 | 0.00 | 0.00 | 0.00 | 94 | 1012.6 |
| 20260507061523 | 10 | 244 | 0.0 | 0.0 | 0.00 | 0.00 | 0.00 | 94 | 1012.6 |
| 20260507060026 | 9 | 244 | 0.0 | 0.0 | 0.00 | 0.00 | 0.00 | 94 | 1012.6 |
| 20260507054515 | 8 | 244 | 0.0 | 0.0 | 0.00 | 0.00 | 0.00 | 94 | 1012.6 |
| 20260507053012 | 8 | 244 | 0.0 | 0.0 | 0.00 | 0.00 | 0.00 | 93 | 1012.5 |
| 20260507051510 | 8 | 244 | 0.0 | 0.0 | 0.00 | 0.00 | 0.00 | 93 | 1012.4 |
| 20260507050023 | 8 | 244 | 0.0 | 0.0 | 0.00 | 0.00 | 0.00 | 93 | 1012.3 |
| 20260507044507 | 8 | 244 | 0.0 | 0.0 | 0.00 | 0.00 | 0.00 | 93 | 1012.2 |
| 20260507043004 | 8 | 244 | 0.0 | 0.0 | 0.00 | 0.00 | 0.00 | 93 | 1012.2 |
| 20260507041503 | 9 | 244 | 0.0 | 0.0 | 0.00 | 0.00 | 0.00 | 93 | 1012.1 |
| 20260507040005 | 9 | 244 | 0.0 | 0.0 | 0.00 | 0.00 | 0.00 | 93 | 1012.1 |
| 20260507034500 | 9 | 246 | 1.6 | 3.2 | 0.00 | 0.00 | 0.00 | 93 | 1012.0 |
| 20260507033105 | 9 | 246 | 0.0 | 0.0 | 0.00 | 0.00 | 0.00 | 92 | 1011.9 |
| 20260507031607 | 10 | 246 | 0.0 | 1.6 | 0.00 | 0.00 | 0.00 | 92 | 1011.9 |
| 20260507030059 | 10 | 246 | 0.0 | 3.2 | 0.00 | 0.00 | 0.00 | 92 | 1012.1 |
| 20260507024555 | 10 | 245 | 0.0 | 0.0 | 0.00 | 0.00 | 0.00 | 92 | 1011.9 |
| 20260507023103 | 10 | 245 | 0.0 | 1.6 | 0.00 | 0.00 | 0.00 | 92 | 1011.8 |
| 20260507021552 | 10 | 245 | 0.0 | 0.0 | 0.00 | 0.00 | 0.00 | 92 | 1012.0 |
| 20260507020055 | 10 | 245 | 0.0 | 0.0 | 0.00 | 0.00 | 0.00 | 92 | 1012.0 |
| 20260507014552 | 11 | 245 | 0.0 | 0.0 | 0.00 | 0.05 | 0.00 | 92 | 1012.1 |
| 20260507013046 | 11 | 245 | 0.0 | 0.0 | 0.00 | 0.05 | 0.00 | 92 | 1012.1 |
| 20260507011544 | 11 | 245 | 0.0 | 0.0 | 0.00 | 0.05 | 0.00 | 91 | 1012.1 |
| 20260507010043 | 11 | 245 | 0.0 | 0.0 | 0.00 | 0.05 | 0.00 | 91 | 1012.2 |
| 20260507004540 | 11 | 245 | 0.0 | 3.2 | 0.00 | 1.02 | 0.00 | 91 | 1012.2 |
| 20260507003039 | 11 | 245 | 0.0 | 0.0 | 0.00 | 1.02 | 0.00 | 90 | 1012.4 |
| 20260507001540 | 11 | 245 | 0.0 | 0.0 | 0.00 | 1.02 | 0.00 | 90 | 1012.3 |
| 20260507000039 | 11 | 245 | 0.0 | 0.0 | 0.00 | 1.02 | 0.00 | 90 | 1012.4 |
| 20260506234533 | 11 | 245 | 0.0 | 3.2 | 0.00 | 1.42 | 0.00 | 89 | 1012.4 |
| 20260506233033 | 12 | 245 | 0.0 | 1.6 | 0.00 | 1.42 | 0.00 | 89 | 1012.6 |
| 20260506231528 | 12 | 246 | 0.0 | 3.2 | 0.00 | 1.42 | 0.00 | 88 | 1012.7 |
| 20260506230027 | 12 | 246 | 0.0 | 4.8 | 0.00 | 1.42 | 0.00 | 88 | 1012.7 |
| 20260506224525 | 12 | 242 | 0.0 | 6.4 | 0.00 | 1.57 | 0.00 | 88 | 1012.7 |
| 20260506223024 | 12 | 237 | 1.6 | 8.0 | 0.00 | 1.57 | 0.00 | 87 | 1012.7 |
| 20260506221521 | 13 | 252 | 0.0 | 6.4 | 0.00 | 1.57 | 0.00 | 86 | 1012.9 |
| 20260506220023 | 13 | 253 | 3.2 | 12.9 | 0.00 | 1.57 | 0.00 | 86 | 1012.7 |
| 20260506214517 | 13 | 248 | 4.8 | 8.0 | 0.00 | 1.60 | 1.57 | 84 | 1012.7 |